Location: Santa Barbara
(34.4500°N, 119.7700°W)
Time: 19:35:31
(UTC-07:00)

Cosmos 1626 Rocket - Visible Passes

Search period start: 23 August 2016 00:00
Search period end: 02 September 2016 00:00
Orbit: 604 x 631 km, 82.5° (Epoch: 23 August)

Date Brightness Start Highest point End Pass type
(mag) Time Alt. Az. Time Alt. Az. Time Alt. Az.
23 Aug 5.5 20:14:52 10° NE 20:16:48 13° ENE 20:18:20 11° E visible
23 Aug 4.5 21:50:41 10° NNW 21:54:51 43° W 21:55:29 40° WSW visible
24 Aug 4.7 20:30:18 10° NNE 20:33:52 24° ENE 20:35:31 19° ESE visible
24 Aug 5.6 22:08:09 10° NW 22:11:33 22° W 22:12:40 20° WSW visible
25 Aug 3.8 20:46:38 10° N 20:50:51 46° E 20:52:46 28° SE visible
25 Aug 6.4 22:26:45 10° WNW 22:28:10 11° W 22:29:34 10° WSW visible
26 Aug 3.5 21:03:20 10° N 21:07:44 88° W 21:10:04 27° S visible
27 Aug 4.6 21:20:22 10° NNW 21:24:32 43° W 21:27:26 18° SSW visible
28 Aug 4.7 20:00:01 10° NNE 20:03:34 24° ENE 20:07:04 10° SE visible
28 Aug 5.8 21:37:51 10° NW 21:41:13 22° W 21:44:34 10° SW visible
29 Aug 3.8 20:16:18 10° N 20:20:32 46° E 20:24:42 10° SSE visible
29 Aug 6.6 21:56:31 10° WNW 21:57:50 11° W 21:59:09 10° WSW visible
30 Aug 3.5 20:33:01 10° N 20:37:24 87° W 20:41:44 10° S visible
31 Aug 4.8 20:50:04 10° NNW 20:54:12 42° W 20:58:16 10° SSW visible
01 Sep 6.0 21:07:33 10° NW 21:10:54 22° W 21:14:12 10° SW visible
